| time (UTC) | temp F | wind direction | speed MPH | gust MPH | rain 1hr in | rain 24hr in | rain mn in | humidity % | barometer mb |
| 20260507142330 | 49 | 98 | 0.0 | 0.0 | 0.00 | 0.00 | 0.00 | 64 | 1007.5 |
| 20260507141826 | 49 | 204 | 0.0 | 0.0 | 0.00 | 0.00 | 0.00 | 69 | 1007.5 |
| 20260507141323 | 48 | 48 | 2.0 | 2.0 | 0.00 | 0.00 | 0.00 | 67 | 1007.5 |
| 20260507140820 | 49 | 55 | 3.0 | 3.0 | 0.00 | 0.00 | 0.00 | 60 | 1007.3 |
| 20260507140316 | 49 | 305 | 1.0 | 2.0 | 0.00 | 0.00 | 0.00 | 73 | 1007.4 |
| 20260507135814 | 49 | 282 | 0.0 | 1.0 | 0.00 | 0.00 | 0.00 | 72 | 1007.6 |
| 20260507135311 | 48 | 130 | 0.0 | 0.0 | 0.00 | 0.00 | 0.00 | 70 | 1007.4 |
| 20260507134808 | 48 | 346 | 1.0 | 2.0 | 0.00 | 0.00 | 0.00 | 70 | 1007.3 |
| 20260507134303 | 48 | 92 | 1.0 | 1.0 | 0.00 | 0.00 | 0.00 | 75 | 1007.4 |
| 20260507133759 | 47 | 68 | 0.0 | 0.0 | 0.00 | 0.00 | 0.00 | 81 | 1007.2 |
| 20260507133256 | 47 | 35 | 1.0 | 2.0 | 0.00 | 0.00 | 0.00 | 82 | 1007.4 |
| 20260507132754 | 46 | 242 | 0.0 | 1.0 | 0.00 | 0.00 | 0.00 | 78 | 1007.3 |
| 20260507132250 | 46 | 160 | 0.0 | 0.0 | 0.00 | 0.00 | 0.00 | 85 | 1007.4 |
| 20260507131747 | 46 | 100 | 0.0 | 0.0 | 0.00 | 0.00 | 0.00 | 86 | 1007.3 |
| 20260507131244 | 46 | 164 | 0.0 | 0.0 | 0.00 | 0.00 | 0.00 | 81 | 1007.5 |
| 20260507130741 | 46 | 76 | 0.0 | 0.0 | 0.00 | 0.00 | 0.00 | 78 | 1007.5 |
| 20260507130238 | 46 | 120 | 0.0 | 0.0 | 0.00 | 0.00 | 0.00 | 86 | 1007.7 |
| 20260507125737 | 46 | 284 | 2.0 | 2.0 | 0.00 | 0.00 | 0.00 | 83 | 1007.4 |
| 20260507125234 | 45 | 214 | 0.0 | 0.0 | 0.00 | 0.00 | 0.00 | 86 | 1007.4 |
| 20260507124731 | 44 | 149 | 0.0 | 0.0 | 0.00 | 0.00 | 0.00 | 87 | 1007.5 |
| 20260507124228 | 44 | 183 | 0.0 | 0.0 | 0.00 | 0.00 | 0.00 | 95 | 1007.5 |
| 20260507123726 | 43 | 80 | 0.0 | 0.0 | 0.00 | 0.00 | 0.00 | 95 | 1007.5 |
| 20260507123223 | 42 | 97 | 0.0 | 0.0 | 0.00 | 0.00 | 0.00 | 97 | 1007.3 |
| 20260507122718 | 43 | 137 | 0.0 | 0.0 | 0.00 | 0.00 | 0.00 | 98 | 1007.3 |
| 20260507122214 | 43 | 184 | 0.0 | 0.0 | 0.00 | 0.00 | 0.00 | 97 | 1007.5 |
| 20260507121710 | 43 | 196 | 0.0 | 0.0 | 0.00 | 0.00 | 0.00 | 99 | 1007.4 |
| 20260507121206 | 43 | 157 | 0.0 | 0.0 | 0.00 | 0.00 | 0.00 | 99 | 1007.3 |
| 20260507120703 | 43 | 206 | 0.0 | 0.0 | 0.00 | 0.00 | 0.00 | 99 | 1007.4 |
| 20260507120200 | 43 | 189 | 0.0 | 0.0 | 0.00 | 0.00 | 0.00 | 99 | 1007.3 |
| 20260507115656 | 43 | 221 | 0.0 | 0.0 | 0.00 | 0.00 | 0.00 | 99 | 1007.4 |
| 20260507115151 | 44 | 225 | 0.0 | 0.0 | 0.00 | 0.00 | 0.00 | 99 | 1007.3 |
| 20260507114648 | 44 | 162 | 0.0 | 0.0 | 0.00 | 0.00 | 0.00 | 99 | 1006.9 |
| 20260507114145 | 44 | 197 | 0.0 | 0.0 | 0.00 | 0.00 | 0.00 | 99 | 1007.1 |
| 20260507113642 | 44 | 137 | 0.0 | 0.0 | 0.00 | 0.00 | 0.00 | 99 | 1006.9 |
| 20260507113139 | 43 | 30 | 0.0 | 0.0 | 0.00 | 0.00 | 0.00 | 99 | 1006.9 |
| 20260507112637 | 43 | 30 | 0.0 | 0.0 | 0.00 | 0.00 | 0.00 | 99 | 1007.1 |
| 20260507112133 | 43 | 31 | 0.0 | 0.0 | 0.00 | 0.00 | 0.00 | 99 | 1006.6 |
| 20260507111631 | 42 | 175 | 2.0 | 2.0 | 0.00 | 0.00 | 0.00 | 99 | 1006.6 |
| 20260507111127 | 42 | 117 | 0.0 | 0.0 | 0.00 | 0.00 | 0.00 | 99 | 1007.2 |
| 20260507110623 | 42 | 117 | 0.0 | 0.0 | 0.00 | 0.00 | 0.00 | 99 | 1006.8 |
| 20260507110120 | 42 | 116 | 0.0 | 0.0 | 0.00 | 0.00 | 0.00 | 99 | 1007.2 |
| 20260507105617 | 42 | 130 | 0.0 | 0.0 | 0.00 | 0.00 | 0.00 | 99 | 1007.2 |
| 20260507105113 | 42 | 130 | 0.0 | 0.0 | 0.00 | 0.00 | 0.00 | 99 | 1007.2 |
| 20260507104611 | 41 | 130 | 0.0 | 0.0 | 0.00 | 0.00 | 0.00 | 99 | 1006.9 |
| 20260507104107 | 41 | 129 | 0.0 | 0.0 | 0.00 | 0.00 | 0.00 | 99 | 1007.3 |
| 20260507103603 | 41 | 130 | 0.0 | 0.0 | 0.00 | 0.00 | 0.00 | 99 | 1007.2 |
| 20260507103100 | 41 | 136 | 0.0 | 0.0 | 0.00 | 0.00 | 0.00 | 99 | 1006.9 |
| 20260507102556 | 41 | 136 | 0.0 | 0.0 | 0.00 | 0.00 | 0.00 | 99 | 1006.9 |
| 20260507102052 | 41 | 135 | 0.0 | 0.0 | 0.00 | 0.00 | 0.00 | 99 | 1007.1 |
| 20260507101548 | 41 | 135 | 0.0 | 0.0 | 0.00 | 0.00 | 0.00 | 99 | 1006.9 |
| 20260507101045 | 41 | 135 | 0.0 | 0.0 | 0.00 | 0.00 | 0.00 | 99 | 1006.9 |
| 20260507100542 | 41 | 135 | 0.0 | 0.0 | 0.00 | 0.00 | 0.00 | 99 | 1007.1 |
| 20260507100040 | 41 | 135 | 0.0 | 0.0 | 0.00 | 0.00 | 0.00 | 99 | 1006.7 |
| 20260507095538 | 41 | 135 | 0.0 | 0.0 | 0.00 | 0.00 | 0.00 | 99 | 1006.7 |
| 20260507095034 | 41 | 134 | 0.0 | 0.0 | 0.00 | 0.00 | 0.00 | 99 | 1006.7 |
| 20260507094531 | 41 | 159 | 0.0 | 0.0 | 0.00 | 0.00 | 0.00 | 99 | 1006.9 |
| 20260507094028 | 41 | 159 | 0.0 | 0.0 | 0.00 | 0.00 | 0.00 | 99 | 1007.1 |
| 20260507093525 | 41 | 159 | 0.0 | 0.0 | 0.00 | 0.00 | 0.00 | 99 | 1006.7 |
| 20260507093024 | 41 | 159 | 0.0 | 0.0 | 0.00 | 0.00 | 0.00 | 99 | 1006.9 |
| 20260507092520 | 41 | 159 | 0.0 | 0.0 | 0.00 | 0.00 | 0.00 | 99 | 1007.3 |
| 20260507092016 | 41 | 159 | 0.0 | 0.0 | 0.00 | 0.00 | 0.00 | 99 | 1007.1 |
| 20260507091513 | 41 | 159 | 0.0 | 0.0 | 0.00 | 0.00 | 0.00 | 99 | 1006.9 |
| 20260507091009 | 41 | 158 | 0.0 | 0.0 | 0.00 | 0.00 | 0.00 | 99 | 1006.8 |
| 20260507090505 | 41 | 159 | 0.0 | 0.0 | 0.00 | 0.00 | 0.00 | 99 | 1007.1 |
| 20260507090002 | 41 | 159 | 0.0 | 0.0 | 0.00 | 0.00 | 0.00 | 99 | 1007.3 |
| 20260507085459 | 41 | 159 | 0.0 | 0.0 | 0.00 | 0.00 | 0.00 | 99 | 1007.3 |
| 20260507084955 | 41 | 159 | 0.0 | 0.0 | 0.00 | 0.00 | 0.00 | 99 | 1007.3 |
| 20260507084453 | 41 | 159 | 0.0 | 0.0 | 0.00 | 0.00 | 0.00 | 99 | 1007.1 |
| 20260507083949 | 41 | 159 | 0.0 | 0.0 | 0.00 | 0.00 | 0.00 | 99 | 1007.1 |
| 20260507083446 | 41 | 159 | 0.0 | 0.0 | 0.00 | 0.00 | 0.00 | 99 | 1006.9 |
| 20260507082943 | 41 | 159 | 0.0 | 0.0 | 0.00 | 0.00 | 0.00 | 99 | 1006.8 |
| 20260507082439 | 42 | 159 | 0.0 | 0.0 | 0.00 | 0.00 | 0.00 | 99 | 1007.1 |
| 20260507081935 | 42 | 159 | 0.0 | 0.0 | 0.00 | 0.00 | 0.00 | 99 | 1007.1 |
| 20260507081431 | 42 | 159 | 0.0 | 0.0 | 0.00 | 0.00 | 0.00 | 99 | 1007.2 |
| 20260507080928 | 42 | 159 | 0.0 | 0.0 | 0.00 | 0.00 | 0.00 | 99 | 1007.3 |
| 20260507080425 | 42 | 159 | 0.0 | 0.0 | 0.00 | 0.00 | 0.00 | 99 | 1007.3 |
| 20260507075920 | 42 | 160 | 0.0 | 0.0 | 0.00 | 0.00 | 0.00 | 99 | 1007.4 |
| 20260507075416 | 42 | 160 | 0.0 | 0.0 | 0.00 | 0.00 | 0.00 | 99 | 1007.2 |
| 20260507074908 | 42 | 160 | 0.0 | 0.0 | 0.00 | 0.00 | 0.00 | 99 | 1006.9 |
| 20260507074405 | 42 | 167 | 0.0 | 0.0 | 0.00 | 0.00 | 0.00 | 99 | 1006.9 |
| 20260507073903 | 42 | 149 | 0.0 | 0.0 | 0.00 | 0.00 | 0.00 | 99 | 1006.8 |
| 20260507073358 | 42 | 149 | 0.0 | 0.0 | 0.00 | 0.00 | 0.00 | 99 | 1006.7 |
| 20260507072856 | 42 | 149 | 0.0 | 0.0 | 0.00 | 0.00 | 0.00 | 99 | 1006.7 |
| 20260507072353 | 42 | 149 | 0.0 | 0.0 | 0.00 | 0.00 | 0.00 | 99 | 1006.6 |
| 20260507071850 | 42 | 149 | 0.0 | 0.0 | 0.00 | 0.00 | 0.00 | 99 | 1006.6 |
| 20260507071348 | 43 | 125 | 0.0 | 0.0 | 0.00 | 0.00 | 0.00 | 99 | 1006.3 |
| 20260507070843 | 43 | 274 | 0.0 | 0.0 | 0.00 | 0.00 | 0.00 | 99 | 1006.6 |
| 20260507070341 | 43 | 274 | 0.0 | 0.0 | 0.00 | 0.00 | 0.00 | 99 | 1006.4 |
| 20260507065838 | 43 | 274 | 0.0 | 0.0 | 0.00 | 0.00 | 0.00 | 99 | 1006.4 |
| 20260507065335 | 43 | 274 | 0.0 | 0.0 | 0.00 | 0.00 | 0.00 | 99 | 1006.4 |
| 20260507064831 | 43 | 274 | 0.0 | 0.0 | 0.00 | 0.00 | 0.00 | 99 | 1006.3 |
| 20260507064330 | 43 | 274 | 0.0 | 0.0 | 0.00 | 0.00 | 0.00 | 99 | 1006.5 |
| 20260507063828 | 43 | 274 | 0.0 | 0.0 | 0.00 | 0.00 | 0.00 | 99 | 1006.6 |
| 20260507063324 | 43 | 274 | 1.0 | 1.0 | 0.00 | 0.00 | 0.00 | 99 | 1006.8 |
| 20260507062821 | 43 | 274 | 0.0 | 0.0 | 0.00 | 0.00 | 0.00 | 99 | 1006.4 |
| 20260507062318 | 43 | 274 | 0.0 | 0.0 | 0.00 | 0.00 | 0.00 | 99 | 1006.6 |
| 20260507061816 | 43 | 274 | 0.0 | 0.0 | 0.00 | 0.00 | 0.00 | 99 | 1006.5 |
| 20260507061314 | 43 | 275 | 0.0 | 0.0 | 0.00 | 0.00 | 0.00 | 99 | 1006.3 |
| 20260507060812 | 43 | 275 | 0.0 | 0.0 | 0.00 | 0.00 | 0.00 | 99 | 1006.6 |
| 20260507060308 | 43 | 249 | 0.0 | 0.0 | 0.00 | 0.00 | 0.00 | 99 | 1006.7 |
| 20260507055805 | 43 | 246 | 0.0 | 0.0 | 0.00 | 0.00 | 0.00 | 99 | 1006.7 |
| 20260507055300 | 43 | 247 | 0.0 | 0.0 | 0.00 | 0.00 | 0.00 | 99 | 1006.8 |
| 20260507054756 | 43 | 217 | 0.0 | 0.0 | 0.00 | 0.00 | 0.00 | 99 | 1007.1 |
| 20260507054253 | 43 | 267 | 0.0 | 0.0 | 0.00 | 0.00 | 0.00 | 99 | 1007.3 |
| 20260507053751 | 43 | 215 | 0.0 | 0.0 | 0.00 | 0.00 | 0.00 | 99 | 1007.3 |
| 20260507053248 | 43 | 258 | 0.0 | 0.0 | 0.00 | 0.00 | 0.00 | 99 | 1006.9 |
| 20260507052747 | 43 | 257 | 0.0 | 0.0 | 0.00 | 0.00 | 0.00 | 99 | 1007.2 |
| 20260507052243 | 43 | 257 | 0.0 | 0.0 | 0.00 | 0.00 | 0.00 | 99 | 1007.4 |
| 20260507051741 | 43 | 251 | 0.0 | 0.0 | 0.00 | 0.00 | 0.00 | 99 | 1007.2 |
| 20260507051238 | 43 | 251 | 0.0 | 0.0 | 0.00 | 0.00 | 0.00 | 99 | 1006.8 |
| 20260507050734 | 43 | 251 | 0.0 | 0.0 | 0.00 | 0.00 | 0.00 | 99 | 1007.2 |
| 20260507050232 | 44 | 251 | 0.0 | 0.0 | 0.00 | 0.00 | 0.00 | 99 | 1007.2 |
| 20260507045728 | 44 | 251 | 0.0 | 0.0 | 0.00 | 0.00 | 0.00 | 99 | 1007.5 |
| 20260507045224 | 44 | 252 | 0.0 | 0.0 | 0.00 | 0.00 | 0.00 | 99 | 1007.2 |
| 20260507044722 | 44 | 247 | 0.0 | 0.0 | 0.00 | 0.00 | 0.00 | 99 | 1007.2 |
| 20260507044218 | 44 | 91 | 0.0 | 0.0 | 0.00 | 0.00 | 0.00 | 99 | 1006.6 |
| 20260507043714 | 44 | 89 | 0.0 | 0.0 | 0.00 | 0.00 | 0.00 | 99 | 1006.8 |
| 20260507043211 | 44 | 89 | 0.0 | 0.0 | 0.00 | 0.00 | 0.00 | 99 | 1007.1 |
| 20260507042708 | 44 | 97 | 0.0 | 0.0 | 0.00 | 0.00 | 0.00 | 99 | 1006.9 |
| 20260507042203 | 45 | 90 | 0.0 | 0.0 | 0.00 | 0.00 | 0.00 | 99 | 1007.2 |
| 20260507041700 | 45 | 90 | 0.0 | 0.0 | 0.00 | 0.00 | 0.00 | 99 | 1007.1 |
| 20260507041156 | 45 | 214 | 0.0 | 0.0 | 0.00 | 0.00 | 0.00 | 99 | 1006.8 |
| 20260507040654 | 45 | 214 | 0.0 | 0.0 | 0.00 | 0.00 | 0.00 | 99 | 1006.8 |
| 20260507040150 | 45 | 214 | 0.0 | 0.0 | 0.00 | 0.00 | 0.00 | 99 | 1006.6 |
| 20260507035646 | 45 | 214 | 0.0 | 0.0 | 0.00 | 0.71 | 0.71 | 99 | 1006.7 |
| 20260507035142 | 45 | 214 | 0.0 | 0.0 | 0.00 | 0.71 | 0.71 | 99 | 1006.7 |
| 20260507034639 | 45 | 214 | 0.0 | 0.0 | 0.00 | 0.71 | 0.71 | 99 | 1006.7 |
| 20260507034137 | 45 | 214 | 0.0 | 0.0 | 0.00 | 0.71 | 0.71 | 99 | 1006.6 |
| 20260507033635 | 45 | 214 | 0.0 | 0.0 | 0.00 | 0.71 | 0.71 | 99 | 1006.6 |
| 20260507033132 | 45 | 214 | 0.0 | 0.0 | 0.00 | 0.71 | 0.71 | 99 | 1006.9 |
| 20260507032629 | 45 | 214 | 0.0 | 0.0 | 0.00 | 0.71 | 0.71 | 99 | 1007.3 |
| 20260507032125 | 45 | 214 | 0.0 | 0.0 | 0.00 | 0.71 | 0.71 | 99 | 1007.1 |
| 20260507031622 | 45 | 214 | 0.0 | 0.0 | 0.00 | 0.71 | 0.71 | 99 | 1007.3 |
| 20260507031118 | 45 | 214 | 0.0 | 0.0 | 0.00 | 0.71 | 0.71 | 99 | 1007.2 |
| 20260507030615 | 45 | 214 | 0.0 | 0.0 | 0.00 | 0.71 | 0.71 | 99 | 1007.2 |
| 20260507030113 | 45 | 214 | 0.0 | 0.0 | 0.00 | 0.71 | 0.71 | 99 | 1007.1 |
| 20260507025610 | 45 | 214 | 0.0 | 0.0 | 0.00 | 0.71 | 0.71 | 99 | 1007.1 |
| 20260507025106 | 45 | 214 | 0.0 | 0.0 | 0.00 | 0.71 | 0.71 | 99 | 1007.2 |
| 20260507024604 | 45 | 214 | 0.0 | 0.0 | 0.07 | 0.71 | 0.71 | 99 | 1007.2 |
| 20260507024101 | 46 | 214 | 0.0 | 0.0 | 0.07 | 0.71 | 0.71 | 99 | 1007.3 |
| 20260507023556 | 46 | 214 | 0.0 | 0.0 | 0.00 | 0.70 | 0.70 | 99 | 1007.6 |
| 20260507023054 | 46 | 214 | 0.0 | 0.0 | 0.00 | 0.70 | 0.70 | 99 | 1007.4 |
| 20260507022551 | 46 | 214 | 0.0 | 0.0 | 0.00 | 0.70 | 0.70 | 99 | 1007.7 |
| 20260507022041 | 46 | 214 | 0.0 | 0.0 | 0.00 | 0.70 | 0.70 | 99 | 1007.7 |
| 20260507021537 | 46 | 214 | 0.0 | 0.0 | 0.00 | 0.70 | 0.70 | 99 | 1007.4 |
| 20260507021034 | 45 | 214 | 0.0 | 0.0 | 0.00 | 0.70 | 0.70 | 99 | 1007.4 |
| 20260507020532 | 46 | 214 | 0.0 | 0.0 | 0.00 | 0.70 | 0.70 | 99 | 1007.2 |
| 20260507020028 | 46 | 214 | 0.0 | 0.0 | 0.00 | 0.70 | 0.70 | 99 | 1007.5 |
| 20260507015526 | 46 | 214 | 0.0 | 0.0 | 0.00 | 0.70 | 0.70 | 99 | 1007.2 |
| 20260507015024 | 46 | 214 | 0.0 | 0.0 | 0.00 | 0.70 | 0.70 | 99 | 1007.4 |
| 20260507014520 | 46 | 214 | 0.0 | 0.0 | 0.05 | 0.70 | 0.70 | 99 | 1007.4 |
| 20260507014016 | 46 | 213 | 0.0 | 0.0 | 0.05 | 0.70 | 0.70 | 99 | 1007.2 |
| 20260507013513 | 46 | 213 | 0.0 | 0.0 | 0.05 | 0.70 | 0.70 | 99 | 1007.4 |
| 20260507013010 | 46 | 213 | 0.0 | 0.0 | 0.00 | 0.69 | 0.69 | 99 | 1007.3 |
| 20260507012507 | 46 | 213 | 0.0 | 0.0 | 0.00 | 0.69 | 0.69 | 99 | 1007.2 |
| 20260507012003 | 46 | 213 | 0.0 | 0.0 | 0.00 | 0.69 | 0.69 | 99 | 1006.9 |
| 20260507011500 | 46 | 214 | 0.0 | 0.0 | 0.00 | 0.69 | 0.69 | 99 | 1007.2 |
| 20260507010950 | 46 | 287 | 1.0 | 1.0 | 0.07 | 0.69 | 0.69 | 99 | 1007.3 |
| 20260507010444 | 46 | 236 | 0.0 | 0.0 | 0.07 | 0.69 | 0.69 | 99 | 1007.1 |
| 20260507005942 | 46 | 236 | 0.0 | 0.0 | 0.00 | 0.68 | 0.68 | 99 | 1007.1 |
| 20260507005439 | 46 | 247 | 0.0 | 0.0 | 0.05 | 0.68 | 0.68 | 99 | 1006.9 |
| 20260507004935 | 46 | 257 | 0.0 | 0.0 | 0.05 | 0.68 | 0.68 | 99 | 1006.6 |
| 20260507004432 | 47 | 190 | 0.0 | 0.0 | 0.05 | 0.68 | 0.68 | 99 | 1006.6 |
| 20260507003930 | 47 | 191 | 0.0 | 0.0 | 0.00 | 0.67 | 0.67 | 99 | 1006.6 |
| 20260507003425 | 47 | 191 | 0.0 | 0.0 | 0.00 | 0.67 | 0.67 | 99 | 1006.6 |
| 20260507002920 | 46 | 190 | 0.0 | 0.0 | 0.00 | 0.67 | 0.67 | 99 | 1006.3 |
| 20260507002417 | 46 | 192 | 0.0 | 0.0 | 0.00 | 0.67 | 0.67 | 99 | 1006.1 |
| 20260507001914 | 47 | 196 | 0.0 | 0.0 | 0.00 | 0.67 | 0.67 | 99 | 1006.1 |
| 20260507001410 | 47 | 291 | 1.0 | 2.0 | 0.00 | 0.67 | 0.67 | 99 | 1006.0 |
| 20260507000908 | 47 | 214 | 0.0 | 0.0 | 0.00 | 0.67 | 0.67 | 99 | 1006.1 |
| 20260507000405 | 47 | 221 | 0.0 | 1.0 | 0.00 | 0.67 | 0.67 | 99 | 1005.7 |
| 20260506235859 | 47 | 230 | 1.0 | 1.0 | 0.00 | 0.67 | 0.67 | 99 | 1005.8 |
| 20260506235357 | 48 | 210 | 0.0 | 0.0 | 0.00 | 0.67 | 0.67 | 99 | 1005.7 |
| 20260506234852 | 47 | 225 | 0.0 | 0.0 | 0.00 | 0.67 | 0.67 | 99 | 1005.5 |
| 20260506234350 | 47 | 128 | 0.0 | 0.0 | 0.00 | 0.67 | 0.67 | 99 | 1005.2 |
| 20260506233848 | 48 | 79 | 0.0 | 0.0 | 0.00 | 0.67 | 0.67 | 99 | 1005.2 |
| 20260506233343 | 48 | 133 | 0.0 | 0.0 | 0.00 | 0.67 | 0.67 | 99 | 1005.1 |
| 20260506232841 | 48 | 217 | 0.0 | 0.0 | 0.00 | 0.67 | 0.67 | 99 | 1004.9 |
| 20260506232336 | 48 | 15 | 0.0 | 0.0 | 0.00 | 0.67 | 0.67 | 99 | 1004.9 |
| 20260506231833 | 48 | 218 | 0.0 | 0.0 | 0.07 | 0.67 | 0.67 | 99 | 1004.9 |
| 20260506231331 | 48 | 228 | 0.0 | 1.0 | 0.07 | 0.67 | 0.67 | 99 | 1005.0 |
| 20260506230828 | 48 | 230 | 0.0 | 0.0 | 0.00 | 0.66 | 0.66 | 99 | 1004.9 |
| 20260506230325 | 48 | 230 | 0.0 | 0.0 | 0.00 | 0.66 | 0.66 | 99 | 1004.9 |
| 20260506225820 | 48 | 274 | 2.0 | 2.0 | 0.00 | 0.66 | 0.66 | 99 | 1004.7 |
| 20260506225318 | 48 | 227 | 0.0 | 0.0 | 0.00 | 0.66 | 0.66 | 99 | 1004.7 |
| 20260506224815 | 49 | 227 | 0.0 | 0.0 | 0.00 | 0.66 | 0.66 | 99 | 1004.6 |
| 20260506224312 | 48 | 229 | 0.0 | 0.0 | 0.00 | 0.66 | 0.66 | 99 | 1004.6 |
| 20260506223809 | 49 | 260 | 0.0 | 0.0 | 0.00 | 0.66 | 0.66 | 99 | 1004.7 |
| 20260506223303 | 49 | 290 | 0.0 | 1.0 | 0.00 | 0.66 | 0.66 | 99 | 1004.6 |
| 20260506222800 | 49 | 217 | 1.0 | 1.0 | 0.00 | 0.66 | 0.66 | 99 | 1004.5 |
| 20260506222255 | 49 | 349 | 0.0 | 0.0 | 0.00 | 0.66 | 0.66 | 99 | 1004.6 |
| 20260506221749 | 49 | 111 | 0.0 | 0.0 | 0.00 | 0.66 | 0.66 | 99 | 1004.3 |
| 20260506221246 | 49 | 132 | 0.0 | 0.0 | 0.00 | 0.66 | 0.66 | 99 | 1004.3 |
| 20260506220744 | 50 | 346 | 0.0 | 1.0 | 0.00 | 0.66 | 0.66 | 99 | 1004.3 |
| 20260506220238 | 50 | 126 | 0.0 | 0.0 | 0.00 | 0.66 | 0.66 | 99 | 1004.1 |
| 20260506215735 | 50 | 232 | 0.0 | 1.0 | 0.00 | 0.66 | 0.66 | 99 | 1004.0 |
| 20260506215230 | 50 | 134 | 0.0 | 0.0 | 0.00 | 0.66 | 0.66 | 99 | 1003.9 |
| 20260506214727 | 51 | 141 | 0.0 | 0.0 | 0.00 | 0.66 | 0.66 | 99 | 1003.8 |
| 20260506214225 | 51 | 164 | 0.0 | 0.0 | 0.00 | 0.66 | 0.66 | 99 | 1003.7 |
| 20260506213722 | 52 | 141 | 0.0 | 0.0 | 0.00 | 0.66 | 0.66 | 99 | 1003.9 |
| 20260506213219 | 52 | 86 | 0.0 | 0.0 | 0.00 | 0.66 | 0.66 | 99 | 1003.7 |
| 20260506212716 | 52 | 99 | 0.0 | 0.0 | 0.00 | 0.66 | 0.66 | 99 | 1003.7 |
| 20260506212211 | 53 | 99 | 0.0 | 1.0 | 0.00 | 0.66 | 0.66 | 99 | 1003.7 |
| 20260506211707 | 53 | 160 | 0.0 | 0.0 | 0.00 | 0.66 | 0.66 | 99 | 1003.3 |
| 20260506211204 | 54 | 132 | 1.0 | 1.0 | 0.00 | 0.66 | 0.66 | 99 | 1003.8 |
| 20260506210701 | 56 | 238 | 0.0 | 0.0 | 0.00 | 0.66 | 0.66 | 99 | 1003.5 |
| 20260506210158 | 59 | 259 | 1.0 | 1.0 | 0.00 | 0.66 | 0.66 | 99 | 1003.5 |
| 20260506205656 | 59 | 45 | 0.0 | 0.0 | 0.05 | 0.66 | 0.66 | 99 | 1003.6 |
| 20260506205155 | 59 | 45 | 0.0 | 0.0 | 0.05 | 0.66 | 0.66 | 99 | 1003.5 |
| 20260506204654 | 59 | 45 | 0.0 | 0.0 | 0.07 | 0.65 | 0.65 | 99 | 1003.4 |
| 20260506204150 | 59 | 45 | 0.0 | 0.0 | 0.07 | 0.65 | 0.65 | 99 | 1003.1 |
| 20260506203648 | 59 | 45 | 0.0 | 0.0 | 0.05 | 0.64 | 0.64 | 99 | 1003.2 |
| 20260506203145 | 59 | 46 | 0.0 | 0.0 | 0.05 | 0.64 | 0.64 | 99 | 1003.1 |
| 20260506202643 | 59 | 236 | 0.0 | 0.0 | 0.05 | 0.64 | 0.64 | 99 | 1003.0 |
| 20260506202139 | 59 | 237 | 0.0 | 0.0 | 0.07 | 0.63 | 0.63 | 99 | 1003.2 |
| 20260506201636 | 59 | 266 | 1.0 | 1.0 | 0.12 | 0.63 | 0.63 | 99 | 1003.0 |
| 20260506201132 | 59 | 148 | 0.0 | 0.0 | 0.19 | 0.62 | 0.62 | 99 | 1003.4 |
| 20260506200629 | 59 | 82 | 0.0 | 0.0 | 0.14 | 0.61 | 0.61 | 99 | 1003.4 |
| 20260506200126 | 59 | 104 | 0.0 | 0.0 | 0.12 | 0.60 | 0.60 | 99 | 1003.1 |
| 20260506195622 | 59 | 104 | 0.0 | 0.0 | 0.17 | 0.59 | 0.59 | 99 | 1003.2 |
| 20260506195119 | 59 | 105 | 0.0 | 0.0 | 0.12 | 0.58 | 0.58 | 99 | 1003.3 |
| 20260506194617 | 59 | 104 | 0.0 | 0.0 | 0.00 | 0.56 | 0.56 | 99 | 1003.1 |
| 20260506194113 | 60 | 104 | 0.0 | 0.0 | 0.00 | 0.56 | 0.56 | 99 | 1003.6 |
| 20260506193611 | 60 | 104 | 0.0 | 0.0 | 0.07 | 0.56 | 0.56 | 99 | 1003.4 |
| 20260506193108 | 60 | 104 | 0.0 | 0.0 | 0.07 | 0.56 | 0.56 | 99 | 1003.8 |
| 20260506192605 | 59 | 105 | 0.0 | 0.0 | 0.07 | 0.56 | 0.56 | 99 | 1003.5 |
| 20260506192100 | 59 | 93 | 0.0 | 0.0 | 0.00 | 0.55 | 0.55 | 99 | 1003.5 |
| 20260506191557 | 59 | 131 | 0.0 | 0.0 | 0.00 | 0.55 | 0.55 | 99 | 1003.8 |
| 20260506191053 | 60 | 112 | 1.0 | 1.0 | 0.00 | 0.55 | 0.55 | 99 | 1003.6 |
| 20260506190551 | 59 | 93 | 0.0 | 0.0 | 0.00 | 0.55 | 0.55 | 99 | 1003.7 |
| 20260506190048 | 59 | 156 | 0.0 | 0.0 | 0.05 | 0.55 | 0.55 | 99 | 1003.5 |
| 20260506185545 | 59 | 157 | 0.0 | 0.0 | 0.05 | 0.55 | 0.55 | 99 | 1003.6 |
| 20260506185041 | 59 | 156 | 0.0 | 0.0 | 0.00 | 0.54 | 0.54 | 99 | 1003.9 |
| 20260506184538 | 59 | 157 | 0.0 | 0.0 | 0.00 | 0.54 | 0.54 | 99 | 1003.9 |
| 20260506184035 | 59 | 156 | 0.0 | 0.0 | 0.00 | 0.54 | 0.54 | 99 | 1004.0 |
| 20260506183531 | 59 | 157 | 0.0 | 0.0 | 0.00 | 0.54 | 0.54 | 99 | 1003.8 |
| 20260506183028 | 59 | 157 | 0.0 | 0.0 | 0.07 | 0.54 | 0.54 | 99 | 1003.8 |
| 20260506182525 | 58 | 157 | 0.0 | 0.0 | 0.07 | 0.54 | 0.54 | 99 | 1004.0 |
| 20260506182022 | 58 | 157 | 0.0 | 0.0 | 0.12 | 0.54 | 0.54 | 99 | 1004.0 |
| 20260506181520 | 58 | 157 | 0.0 | 0.0 | 0.12 | 0.53 | 0.53 | 99 | 1004.1 |
| 20260506181017 | 58 | 157 | 0.0 | 0.0 | 0.12 | 0.52 | 0.52 | 99 | 1004.1 |
| 20260506180514 | 57 | 158 | 0.0 | 0.0 | 0.17 | 0.51 | 0.51 | 99 | 1004.4 |
| 20260506180010 | 57 | 160 | 0.0 | 0.0 | 0.38 | 0.50 | 0.50 | 99 | 1004.3 |
| 20260506175507 | 57 | 160 | 0.0 | 0.0 | 0.42 | 0.48 | 0.48 | 99 | 1004.7 |
| 20260506175003 | 57 | 159 | 0.0 | 0.0 | 0.35 | 0.45 | 0.45 | 99 | 1004.6 |
| 20260506174502 | 57 | 159 | 0.0 | 0.0 | 0.35 | 0.41 | 0.41 | 99 | 1004.4 |
| 20260506173957 | 57 | 147 | 0.0 | 0.0 | 0.73 | 0.39 | 0.39 | 99 | 1004.4 |
| 20260506173455 | 57 | 150 | 2.0 | 2.0 | 0.90 | 0.36 | 0.36 | 99 | 1004.7 |
| 20260506172946 | 57 | 175 | 0.0 | 0.0 | 0.61 | 0.26 | 0.26 | 99 | 1004.7 |
| 20260506172444 | 58 | 180 | 1.0 | 1.0 | 0.47 | 0.20 | 0.20 | 99 | 1005.2 |
| 20260506171940 | 58 | 332 | 0.0 | 1.0 | 0.31 | 0.15 | 0.15 | 99 | 1005.4 |
| 20260506171437 | 58 | 331 | 0.0 | 0.0 | 0.24 | 0.12 | 0.12 | 99 | 1005.3 |
| 20260506170930 | 58 | 331 | 0.0 | 0.0 | 0.19 | 0.10 | 0.10 | 99 | 1005.0 |
| 20260506170425 | 58 | 73 | 0.0 | 0.0 | 0.07 | 0.08 | 0.08 | 99 | 1005.1 |
| 20260506165919 | 58 | 352 | 0.0 | 0.0 | 0.05 | 0.07 | 0.07 | 99 | 1004.8 |
| 20260506165417 | 58 | 352 | 0.0 | 0.0 | 0.05 | 0.07 | 0.07 | 99 | 1005.0 |
| 20260506164912 | 58 | 352 | 0.0 | 0.0 | 0.00 | 0.06 | 0.06 | 99 | 1004.9 |
| 20260506164409 | 58 | 352 | 0.0 | 0.0 | 0.07 | 0.06 | 0.06 | 99 | 1005.2 |
| 20260506163907 | 58 | 352 | 0.0 | 0.0 | 0.07 | 0.06 | 0.06 | 99 | 1005.2 |
| 20260506163401 | 58 | 352 | 0.0 | 0.0 | 0.05 | 0.05 | 0.05 | 99 | 1005.1 |
| 20260506162856 | 58 | 352 | 0.0 | 0.0 | 0.05 | 0.05 | 0.05 | 99 | 1005.2 |
| 20260506162355 | 58 | 352 | 0.0 | 0.0 | 0.00 | 0.04 | 0.04 | 99 | 1005.2 |
| 20260506161852 | 58 | 352 | 0.0 | 0.0 | 0.00 | 0.04 | 0.04 | 99 | 1005.8 |
| 20260506161349 | 58 | 352 | 0.0 | 0.0 | 0.07 | 0.04 | 0.04 | 99 | 1005.6 |
| 20260506160847 | 58 | 352 | 0.0 | 0.0 | 0.07 | 0.04 | 0.04 | 99 | 1005.6 |
| 20260506160343 | 58 | 352 | 0.0 | 0.0 | 0.00 | 0.03 | 0.03 | 99 | 1005.6 |
| 20260506155842 | 58 | 352 | 0.0 | 0.0 | 0.00 | 0.03 | 0.03 | 99 | 1005.8 |
| 20260506155338 | 58 | 351 | 0.0 | 0.0 | 0.00 | 0.03 | 0.03 | 99 | 1005.7 |
| 20260506153450 | 58 | 217 | 0.0 | 0.0 | 0.05 | 0.03 | 0.03 | 99 | 1006.2 |
| 20260506152948 | 58 | 218 | 0.0 | 0.0 | 0.00 | 0.02 | 0.02 | 99 | 1006.4 |
| 20260506152444 | 57 | 216 | 0.0 | 0.0 | 0.00 | 0.02 | 0.02 | 99 | 1006.4 |
| 20260506151943 | 57 | 216 | 0.0 | 0.0 | 0.00 | 0.02 | 0.02 | 99 | 1006.7 |
| 20260506151440 | 57 | 216 | 0.0 | 0.0 | 0.00 | 0.02 | 0.02 | 99 | 1006.3 |
| 20260506150938 | 57 | 216 | 0.0 | 0.0 | 0.00 | 0.02 | 0.02 | 99 | 1006.6 |
| 20260506150433 | 57 | 216 | 0.0 | 0.0 | 0.07 | 0.02 | 0.02 | 98 | 1006.6 |
| 20260506145930 | 57 | 216 | 0.0 | 0.0 | 0.07 | 0.02 | 0.02 | 98 | 1006.5 |
| 20260506145426 | 57 | 216 | 0.0 | 0.0 | 0.00 | 0.01 | 0.01 | 98 | 1006.6 |
| 20260506144924 | 57 | 216 | 0.0 | 0.0 | 0.00 | 0.01 | 0.01 | 98 | 1006.7 |
| 20260506144415 | 57 | 216 | 0.0 | 0.0 | 0.00 | 0.01 | 0.01 | 97 | 1006.8 |
| 20260506143914 | 57 | 216 | 0.0 | 0.0 | 0.05 | 0.01 | 0.01 | 97 | 1006.7 |
| 20260506143410 | 57 | 216 | 0.0 | 0.0 | 0.05 | 0.01 | 0.01 | 96 | 1006.7 |
| 20260506142909 | 57 | 216 | 0.0 | 0.0 | 0.00 | 0.00 | 0.00 | 95 | 1006.2 |